Flag for Canada Weather past 2 weeks in Dieppe, New Brunswick, Canada

Now
61 °F

Scattered clouds.


Feels Like: 61 °F
Forecast: 44 / 73 °F
Wind: 8 mph from Southwest

Location: Moncton

Current Time: Aug 30, 2014 at 11:30:46 AM

Latest Report: Aug 30, 2014 at 10:00 AM


Visibility: 15 mi

Pressure: 30.24 "Hg

Humidity: 68%

Dew point: 50 °F

Location of DieppeLocation

Historic Weather in Dieppe — Graph

°F

Dieppe temperature yesterday

Maximum temperature yesterday: 63 °F (at 4:00 PM)
Minimum temperature yesterday: 48 °F (at 11:00 PM)
Average temperature yesterday: 56 °F

Past Weeks' High & Low Weather Summary

 TemperatureHumidityPressure
High84 °F (Aug 25, 3:00 PM)100% (Aug 16, 2:00 AM)30.25 "Hg (Aug 16, 2:00 AM)
Low41 °F (Aug 30, 6:00 AM)44% (Aug 24, 5:00 PM)29.58 "Hg (Aug 18, 3:00 PM)
Average63 °F82%29.94 "Hg
* Reported Aug 15 10:00 AM — Aug 30 10:00 AM, Dieppe, Weather by CustomWeather, © 2014

Note: Actual official high and low records may vary slightly from our data, if they occured in-between our weather recording intervals... More about our weather records

Advertising

Dieppe weather history for previous 24 hours

 ConditionsComfort  
Time TempWeatherWind HumidityBarometerVisibility
10:00 AM
Aug 30
61 °FScattered clouds.8 mph68%30.24 "Hg15 mi
9:00 AM54 °FScattered clouds.7 mph77%30.25 "Hg15 mi
8:00 AM46 °FPassing clouds.6 mph87%30.25 "Hg15 mi
7:00 AM43 °FPassing clouds.7 mph93%30.25 "Hg15 mi
6:00 AM41 °FPassing clouds.7 mph100%30.23 "Hg15 mi
5:00 AM43 °FClear.8 mph93%30.24 "Hg15 mi
4:00 AM43 °FClear.8 mph93%30.23 "Hg15 mi
3:00 AM45 °FClear.8 mph87%30.23 "Hg15 mi
2:00 AM45 °FClear.9 mph87%30.23 "Hg15 mi
1:00 AM45 °FClear.6 mph87%30.22 "Hg15 mi
12:00 AM46 °FClear.8 mph82%30.22 "Hg15 mi
11:00 PM
Aug 29
48 °FClear.6 mph87%30.22 "Hg15 mi
10:00 PM50 °FClear.6 mph76%30.20 "Hg15 mi
9:00 PM54 °FSunny.5 mph67%30.19 "Hg15 mi
8:00 PM52 °FSunny.5 mph72%30.17 "Hg15 mi
7:00 PM57 °FPassing clouds.5 mph59%30.17 "Hg15 mi
6:00 PM61 °FPassing clouds.10 mph45%30.17 "Hg15 mi
4:00 PM63 °FPassing clouds.16 mph52%30.15 "Hg15 mi
3:00 PM61 °FPartly sunny.17 mph59%30.14 "Hg15 mi
2:00 PM61 °FScattered clouds.23 mph55%30.11 "Hg15 mi
1:00 PM61 °FPartly sunny.23 mph55%30.10 "Hg15 mi
12:00 PM61 °FPartly sunny.23 mph55%30.08 "Hg15 mi
11:00 AM61 °FScattered clouds.22 mph59%30.05 "Hg15 mi
Weather by CustomWeather, © 2014

See weather overviewHow to use our weather pages